{"data":{"norad_id":39375,"intl_designator":"2013-062A","name":"RADUGA-1M 3","alt_names":[],"object_type":"PAYLOAD","status":"ACTIVE","operator":null,"country":"CIS","launch_date":"2013-11-11","launch_site_code":"TYMSC","launch_vehicle":null,"mission":null,"orbit_class":"UNKNOWN","rcs_meters":63.0957,"size_class":null,"mass_kg":null,"dimensions":null,"purposes":["comms"],"wikipedia_slug":null,"has_3d_model":false,"image_url":null,"decayed_at":null,"tle_current":{"epoch":"2026-09-20T01:41:31.144704Z","epoch_age_seconds":62773,"freshness":"FRESH","line1":"1 39375U 13062A   26263.07049936  .00000151  00000+0  00000+0 0  9991","line2":"2 39375   6.1957  71.1248 0002123 305.8992  42.2886  1.00272047 47053","mean_motion":1.00272047,"eccentricity":0.0002123,"inclination_deg":6.1957,"raan_deg":71.1248,"arg_perigee_deg":305.8992,"mean_anomaly_deg":42.2886,"bstar":0,"rev_number":4705,"period_min":1436.0931516637,"perigee_km":35777.569956237,"apogee_km":35795.473070242,"semimajor_km":42164.65851324,"source":"CELESTRAK","updated_at":"2026-09-20T09:00:35.207097Z"}}}